Address 0xbdc245da4b30dbb96aec26cd7115647aed9fb9cf 2

Txn Hash Method
Block
From
To
Value [Txn Fee]
0x8348797a7ee7fe03b3a3d57bfbdf0bb7bda86b59edec36c3a5052c7458614d3aTransfer196279262022-09-07 4:16:3587 days 40 mins ago0xbdc245da4b30dbb96aec26cd7115647aed9fb9cfOUT0xf1b96f2119533567b928f85501590bda01c0b98f14.312193156890711 AVAX0.0006330
0x3c123bddb40612c7b5d2aa61d5a5d2bea9d3203b4f22e607b9a9e71b5110c870ROOT4146650865195753002022-09-05 20:41:5588 days 8 hrs ago0xbdc245da4b30dbb96aec26cd7115647aed9fb9cfOUT 0xe8fd13767de9301c20c30ea00642f1461e9238620 AVAX0.015097995 33
0xd49c03c75dcc253b14ebc7963bddd88f581f5ed8badd67afe7c8f72b4cfa27680x00000007195713472022-09-05 18:21:5388 days 10 hrs ago0xbdc245da4b30dbb96aec26cd7115647aed9fb9cfOUT 0xe8fd13767de9301c20c30ea00642f1461e9238620 AVAX0.01429032 33
0xa024afa9c4ecf30196782ecec594d661661c397444a0f9c287d003437fda4083ROOT4146650865195696732022-09-05 17:17:5388 days 11 hrs ago0xbdc245da4b30dbb96aec26cd7115647aed9fb9cfOUT 0xe8fd13767de9301c20c30ea00642f1461e9238620 AVAX0.009450474 33
0x6073124993bfabb26e7ad628b9c88da02414cc95200c92098257897df8022944ROOT4146650865195674802022-09-05 15:47:4588 days 13 hrs ago0xbdc245da4b30dbb96aec26cd7115647aed9fb9cfOUT 0xe8fd13767de9301c20c30ea00642f1461e9238620 AVAX0.001335279 33
0x04958b465383a5269febefe8a6d4e784440ce52d619442e06b7deb0a087433caROOT4146650865195665702022-09-05 15:09:3088 days 13 hrs ago0xbdc245da4b30dbb96aec26cd7115647aed9fb9cfOUT 0xe8fd13767de9301c20c30ea00642f1461e9238620 AVAX0.004748535 33
0xc1bc65c4bacbc389a286aa8ce9e55a236c78353379d3843105a61e1315d281beROOT4146650865195657252022-09-05 14:33:5688 days 14 hrs ago0xbdc245da4b30dbb96aec26cd7115647aed9fb9cfOUT 0xe8fd13767de9301c20c30ea00642f1461e9238620 AVAX0.007043619 33
0x98a1a369a47d3a2c4ade65d8d21ab7da3e902875094b4e4e8c0d9cef4cfe4a93ROOT4146650865195645662022-09-05 13:43:2288 days 15 hrs ago0xbdc245da4b30dbb96aec26cd7115647aed9fb9cfOUT 0xe8fd13767de9301c20c30ea00642f1461e9238620 AVAX0.008120607 33
0x4d11ea27ff9bd213c3af0918bcdbf9c8eec1997a9463e5e911ba1eae8a71a9a2ROOT4146650865195634812022-09-05 12:52:1088 days 16 hrs ago0xbdc245da4b30dbb96aec26cd7115647aed9fb9cfOUT 0xe8fd13767de9301c20c30ea00642f1461e9238620 AVAX0.001337754 33
0xb6a66f11e8f6a218fd70020884f1e7e16062648321f7e98d4b8ea70c94c53e04ROOT4146650865195632222022-09-05 12:39:4188 days 16 hrs ago0xbdc245da4b30dbb96aec26cd7115647aed9fb9cfOUT 0xe8fd13767de9301c20c30ea00642f1461e9238620 AVAX0.007800573 33
0x1213576a1e0403742213ec86b930f323a69921be5b6f5a144cf4cdbb982b8c7bROOT4146650865195630662022-09-05 12:32:3688 days 16 hrs ago0xbdc245da4b30dbb96aec26cd7115647aed9fb9cfOUT 0xe8fd13767de9301c20c30ea00642f1461e9238620 AVAX0.005498240095 33.004424583
0x5be971bf989f5bc9facf04128c2b2467207fb9329623fa647d040f9486effdf2ROOT4146650865195625752022-09-05 12:09:5288 days 16 hrs ago0xbdc245da4b30dbb96aec26cd7115647aed9fb9cfOUT 0xe8fd13767de9301c20c30ea00642f1461e9238620 AVAX0.002680788 33
0x2d696fe41d746399b00bb0334eed8773d789501a5aa722edf3b031e015802448ROOT4146650865195609902022-09-05 10:57:0388 days 17 hrs ago0xbdc245da4b30dbb96aec26cd7115647aed9fb9cfOUT 0xe8fd13767de9301c20c30ea00642f1461e9238620 AVAX0.005720649 33
0x9b4822d369c7826b1681dbea5249a120a79e033dac65678b4f7389258a5cd287ROOT4146650865195606252022-09-05 10:38:5288 days 18 hrs ago0xbdc245da4b30dbb96aec26cd7115647aed9fb9cfOUT 0xe8fd13767de9301c20c30ea00642f1461e9238620 AVAX0.008028009 33
0x2aeaf2b89a39fa4c0b570f6ce74f89485dfae93690d32d74cd1410015f747a8fROOT4146650865195593592022-09-05 9:34:1788 days 19 hrs ago0xbdc245da4b30dbb96aec26cd7115647aed9fb9cfOUT 0xe8fd13767de9301c20c30ea00642f1461e9238620 AVAX0.001336995 33
0xd1d8ce471fbe4be7119a2a050af4fb2394fa72ea448628074a0c71c8d48653f7ROOT4146650865195586352022-09-05 9:08:2288 days 19 hrs ago0xbdc245da4b30dbb96aec26cd7115647aed9fb9cfOUT 0xe8fd13767de9301c20c30ea00642f1461e9238620 AVAX0.00271854 33
0x00d0b90bd86ba1f2357b2fb71e914881598c4b280233379bfe819cdafd3d3488ROOT4146650865195582102022-09-05 8:49:5288 days 20 hrs ago0xbdc245da4b30dbb96aec26cd7115647aed9fb9cfOUT 0xe8fd13767de9301c20c30ea00642f1461e9238620 AVAX0.011342628 33
0x92ad2f979ed2df56888c2200143fa51eb558318909382ff1ad20cfa519a1a663ROOT4146650865195578272022-09-05 8:29:1688 days 20 hrs ago0xbdc245da4b30dbb96aec26cd7115647aed9fb9cfOUT 0xe8fd13767de9301c20c30ea00642f1461e9238620 AVAX0.01234332 33
0xef993a4904ba3016993f20adae1cece9de6381f9fe74f95e18851973eaa58d0bROOT4146650865195576402022-09-05 8:20:2988 days 20 hrs ago0xbdc245da4b30dbb96aec26cd7115647aed9fb9cfOUT 0xe8fd13767de9301c20c30ea00642f1461e9238620 AVAX0.001336995 33
0x419ba04895577a87d91c6513cbdef7946d636a514705d569decf09ae051515660x00000003195575162022-09-05 8:13:2188 days 20 hrs ago0xbdc245da4b30dbb96aec26cd7115647aed9fb9cfOUT 0xe8fd13767de9301c20c30ea00642f1461e9238620 AVAX0.006437838 33
0x4970c9517c506ef862591a4037a7271b2e9a85605142f7e515e41dee96e9dd5cROOT4146650865195573372022-09-05 8:04:1088 days 20 hrs ago0xbdc245da4b30dbb96aec26cd7115647aed9fb9cfOUT 0xe8fd13767de9301c20c30ea00642f1461e9238620 AVAX0.010205976 33
0x95cf2975d67878c2348a8bc28db703d77b57367df9369bec18a02ac64b9fd897ROOT4146650865195571432022-09-05 7:53:3288 days 21 hrs ago0xbdc245da4b30dbb96aec26cd7115647aed9fb9cfOUT 0xe8fd13767de9301c20c30ea00642f1461e9238620 AVAX0.009235545 33
0x33b61b98b4474d3b1859581a5ce24a179c04467d6349d4805411705908029990ROOT4146650865195541922022-09-05 4:25:2389 days 31 mins ago0xbdc245da4b30dbb96aec26cd7115647aed9fb9cfOUT 0xe8fd13767de9301c20c30ea00642f1461e9238620 AVAX0.009557691 33
0x367182d9673c122e6cdee40cd9729e16ffe9383a45d251b8e449eea966149a070x00000002195532552022-09-05 3:08:4989 days 1 hr ago0xbdc245da4b30dbb96aec26cd7115647aed9fb9cfOUT 0xe8fd13767de9301c20c30ea00642f1461e9238620 AVAX0.006237396 33
0xb057056de8d033319704c377dbf9ba3c660edaf713e1c9cc9dff37a474548e24ROOT4146650865195526612022-09-05 2:24:5889 days 2 hrs ago0xbdc245da4b30dbb96aec26cd7115647aed9fb9cfOUT 0xe8fd13767de9301c20c30ea00642f1461e9238620 AVAX0.007800969 33
[ Download CSV Export 
Parent Txn Hash Block From To Value
Loading

Contract Name:
0

Compiler Version
0

Optimization Enabled:
0

Other Settings:
-NA-
Block Transaction Gas Used Reward
Age Block Fee Address BC Fee Address Voting Power Jailed Incoming
Block Uncle Number Difficulty Gas Used Reward
Loading
Make sure to use the "Vote Down" button for any spammy posts, and the "Vote Up" for interesting conversations.